Regional Weather Roundup
Issued by NWS

Home | Current Version | Previous Version | Graphics & Text | Print | Product List | Glossary On
Versions: 1 2 3 4 5 6 7 8 9 10 11 12 13 14 15 16 17 18 19 20 21 22 23 24 25 26 27 28 29 30 31 32 33 34 35 36 37 38 39 40 41 42 43 44 45 46 47 48 49 50
000
ASUS45 KSLC 050110
RWRUT

UTAH REGIONAL WEATHER ROUNDUP
NATIONAL WEATHER SERVICE SALT LAKE CITY UT
600 PM MST WED MAR 04 2015

UTZ001>011-023>025-050200-

NORTHERN UTAH

CITY           SKY/WX    TMP DP  RH WIND       PRES   REMARKS
BRIGHAM CITY   CLEAR     37  17  44 S7        30.26R WCI  32
HILL AFB       CLEAR     34  12  41 SW2       30.24R
LOGAN          CLEAR     36  18  48 S9        30.23R WCI  29
OGDEN          CLEAR     34  16  47 S5        30.24R WCI  30
PROVO AIRPORT  PTCLDY    36  19  51 VRB6      30.25R WCI  31
SALT LAKE CITY PTCLDY    37  18  46 NW7       30.26R WCI  32
VERNAL         CLEAR     33  13  43 CALM      30.16R
WENDOVER       CLEAR     39  18  41 SE8       30.24R WCI  34
HEBER CITY     PTCLDY    32  18  55 SW6       30.20R WCI  26
WEST JORDAN    CLEAR     34  19  55 NW7       30.26R WCI  28

$$

UTZ012>022-026-027-050200-

SOUTHERN/CENTRAL UTAH

CITY           SKY/WX    TMP DP  RH WIND       PRES   REMARKS
BLANDING       CLEAR     33  15  48 NW13G21   30.21R WCI  23
BRYCE CANYON   CLEAR     21  10  62 N9        30.17R WCI  11
CEDAR CITY     PTCLDY    33  18  53 N5        30.20R WCI  29
DELTA          CLEAR     38  16  40 CALM      30.24R
HANKSVILLE     CLEAR     43  14  31 NW3       30.17R
MILFORD        CLEAR     37  19  48 E9        30.22R WCI  30
MOAB/CYNLANDS  CLEAR     41  14  33 W8        30.13R
PRICE          PTCLDY    34  12  40 N14       30.13R WCI  25
ST GEORGE      PTCLDY    52  25  35 E7        30.20R
KANAB            N/A     43  18  36 N3        30.21R

$$

REGIONAL REPORTS     COLORADO/ARIZONA

CITY           SKY/WX    TMP DP  RH WIND       PRES   REMARKS
CRAIG, CO      CLEAR     19   6  57 CALM      30.17R
GRAND JUNCTION CLEAR     37  12  35 N9        30.14R WCI  30
RIFLE          PTCLDY    31   5  33 N9        30.17R WCI  23
MONTROSE       CLEAR     33  16  49 NW14      30.16R WCI  23
CORTEZ         CLEAR     34  16  47 NW15      30.11R WCI  24
PAGE, AZ       CLEAR     46  14  27 SE5       30.16R
GRAND CANYON   CLEAR     36  13  38 SE3       30.16R
KINGMAN        CLEAR     51  26  37 N16       30.13R
FLAGSTAFF      PTCLDY    34  14  43 E5        30.14R WCI  30

$$

REGIONAL REPORTS    NEVADA/IDAHO/WYOMING

CITY           SKY/WX    TMP DP  RH WIND       PRES   REMARKS
LAS VEGAS, NV  CLEAR     59  13  16 E7        30.13R
ELY            CLEAR     37  16  42 N8        30.20R WCI  31
ELKO           CLEAR     42  15  33 SW9       30.20R
POCATELLO, ID  CLEAR     35  13  40 CALM      30.23S
EVANSTON, WY   PTCLDY    22  11  62 W12       30.16R WCI  10
ROCK SPRINGS   CLEAR     19   9  65 SW12      30.09R WCI   7

$$



USA.gov is the U.S. government's official web portal to all federal, state and local government web resources and services.